| time (UTC) | temp F | wind direction | speed knots | gust knots | rain 1hr in | rain 24hr in | rain mn in | humidity % | barometer mb |
| 20260507073137 | 68 | 23 | 3.5 | 12.2 | 0.00 | 0.00 | 0.00 | 85 | 1012.1 |
| 20260507071537 | 69 | 360 | 6.1 | 10.4 | 0.00 | 0.00 | 0.00 | 85 | 1012.4 |
| 20260507070012 | 69 | 4 | 6.1 | 11.3 | 0.00 | 0.00 | 0.00 | 84 | 1012.4 |
| 20260507064608 | 69 | 9 | 3.5 | 9.6 | 0.00 | 0.00 | 0.00 | 84 | 1012.3 |
| 20260507063027 | 69 | 33 | 4.3 | 11.3 | 0.00 | 0.00 | 0.00 | 84 | 1012.3 |
| 20260507061611 | 70 | 320 | 5.2 | 10.4 | 0.00 | 0.00 | 0.00 | 83 | 1012.2 |
| 20260507060043 | 70 | 19 | 4.3 | 10.4 | 0.00 | 0.00 | 0.00 | 84 | 1012.3 |
| 20260507054509 | 71 | 333 | 3.5 | 9.6 | 0.00 | 0.00 | 0.00 | 84 | 1011.8 |
| 20260507053049 | 71 | 11 | 4.3 | 10.4 | 0.00 | 0.00 | 0.00 | 83 | 1011.7 |
| 20260507051524 | 72 | 331 | 4.3 | 9.6 | 0.00 | 0.00 | 0.00 | 83 | 1012.0 |
| 20260507050106 | 72 | 1 | 4.3 | 10.4 | 0.00 | 0.00 | 0.00 | 83 | 1011.8 |
| 20260507044542 | 72 | 324 | 5.2 | 11.3 | 0.00 | 0.00 | 0.00 | 83 | 1011.7 |
| 20260507043010 | 73 | 354 | 5.2 | 12.2 | 0.00 | 0.00 | 0.00 | 83 | 1011.9 |
| 20260507041549 | 73 | 335 | 5.2 | 13.0 | 0.00 | 0.00 | 0.00 | 82 | 1011.9 |
| 20260507040019 | 74 | 323 | 6.1 | 11.3 | 0.00 | 0.00 | 0.00 | 82 | 1011.8 |
| 20260507034620 | 74 | 336 | 5.2 | 12.2 | 0.00 | 0.00 | 0.00 | 83 | 1011.5 |
| 20260507033025 | 75 | 316 | 8.7 | 13.0 | 0.00 | 0.00 | 0.00 | 82 | 1011.2 |
| 20260507031606 | 75 | 14 | 6.1 | 12.2 | 0.00 | 0.00 | 0.00 | 83 | 1010.9 |
| 20260507030032 | 76 | 312 | 7.0 | 12.2 | 0.00 | 0.00 | 0.00 | 84 | 1010.6 |
| 20260507024504 | 77 | 340 | 4.3 | 11.3 | 0.00 | 0.00 | 0.00 | 84 | 1010.0 |
| 20260507023047 | 77 | 319 | 4.3 | 7.0 | 0.00 | 0.00 | 0.00 | 85 | 1009.8 |
| 20260507021517 | 77 | 332 | 2.6 | 7.8 | 0.00 | 0.00 | 0.00 | 85 | 1009.5 |
| 20260507020059 | 78 | 19 | 3.5 | 12.2 | 0.00 | 0.00 | 0.00 | 84 | 1009.5 |
| 20260507014525 | 81 | 302 | 3.5 | 9.6 | 0.00 | 0.00 | 0.00 | 86 | 1009.2 |
| 20260507013116 | 81 | 156 | 1.7 | 5.2 | 0.00 | 0.00 | 0.00 | 87 | 1008.7 |
| 20260507011539 | 82 | 180 | 1.7 | 4.3 | 0.00 | 0.00 | 0.00 | 87 | 1008.4 |
| 20260507010024 | 82 | 218 | 0.9 | 4.3 | 0.00 | 0.00 | 0.00 | 86 | 1008.2 |
| 20260507004556 | 82 | 170 | 1.7 | 6.1 | 0.00 | 0.00 | 0.00 | 86 | 1007.8 |
| 20260507003024 | 82 | 143 | 1.7 | 5.2 | 0.00 | 0.00 | 0.00 | 86 | 1007.9 |
| 20260507001614 | 82 | 175 | 3.5 | 8.7 | 0.00 | 0.00 | 0.00 | 86 | 1007.8 |
| 20260507000037 | 83 | 158 | 2.6 | 7.0 | 0.00 | 0.00 | 0.00 | 85 | 1007.7 |
| 20260506234508 | 83 | 169 | 3.5 | 8.7 | 0.00 | 0.00 | 0.00 | 85 | 1007.7 |
| 20260506233059 | 83 | 144 | 4.3 | 7.8 | 0.00 | 0.00 | 0.00 | 84 | 1007.6 |
| 20260506231534 | 84 | 194 | 5.2 | 10.4 | 0.00 | 0.00 | 0.00 | 82 | 1007.5 |
| 20260506230112 | 85 | 146 | 3.5 | 7.8 | 0.00 | 0.00 | 0.00 | 81 | 1007.3 |
| 20260506224549 | 85 | 132 | 4.3 | 7.8 | 0.00 | 0.00 | 0.00 | 81 | 1007.3 |
| 20260506223014 | 85 | 170 | 3.5 | 7.8 | 0.00 | 0.00 | 0.00 | 82 | 1007.3 |
| 20260506221555 | 85 | 192 | 3.5 | 7.8 | 0.00 | 0.00 | 0.00 | 81 | 1007.2 |
| 20260506220032 | 85 | 178 | 2.6 | 8.7 | 0.00 | 0.00 | 0.00 | 81 | 1007.1 |
| 20260506214601 | 85 | 108 | 5.2 | 9.6 | 0.00 | 0.00 | 0.00 | 81 | 1007.0 |
| 20260506213028 | 84 | 225 | 3.5 | 12.2 | 0.00 | 0.00 | 0.00 | 82 | 1007.2 |
| 20260506211604 | 85 | 160 | 4.3 | 11.3 | 0.00 | 0.00 | 0.00 | 81 | 1007.4 |
| 20260506210034 | 85 | 226 | 4.3 | 8.7 | 0.00 | 0.00 | 0.00 | 80 | 1007.3 |
| 20260506204509 | 85 | 165 | 2.6 | 9.6 | 0.00 | 0.00 | 0.00 | 82 | 1007.5 |
| 20260506203054 | 84 | 153 | 4.3 | 10.4 | 0.00 | 0.00 | 0.00 | 82 | 1007.6 |
| 20260506201519 | 84 | 132 | 3.5 | 7.8 | 0.00 | 0.00 | 0.00 | 82 | 1007.8 |
| 20260506200107 | 85 | 166 | 3.5 | 9.6 | 0.00 | 0.00 | 0.00 | 81 | 1007.9 |
| 20260506194537 | 83 | 153 | 4.3 | 11.3 | 0.00 | 0.00 | 0.00 | 83 | 1007.9 |
| 20260506193113 | 85 | 176 | 5.2 | 12.2 | 0.00 | 0.00 | 0.00 | 81 | 1008.1 |
| 20260506191539 | 85 | 137 | 3.5 | 9.6 | 0.00 | 0.00 | 0.00 | 80 | 1008.2 |
| 20260506190007 | 85 | 82 | 3.5 | 7.8 | 0.00 | 0.00 | 0.00 | 80 | 1008.4 |
| 20260506184550 | 84 | 176 | 3.5 | 7.8 | 0.00 | 0.00 | 0.00 | 80 | 1008.6 |
| 20260506183021 | 84 | 128 | 1.7 | 7.0 | 0.00 | 0.00 | 0.00 | 81 | 1008.8 |
| 20260506181627 | 83 | 193 | 3.5 | 7.0 | 0.00 | 0.00 | 0.00 | 82 | 1009.0 |
| 20260506180033 | 83 | 200 | 1.7 | 7.0 | 0.00 | 0.00 | 0.00 | 83 | 1009.4 |
| 20260506174503 | 83 | 159 | 4.3 | 8.7 | 0.00 | 0.00 | 0.00 | 83 | 1009.6 |
| 20260506173120 | 82 | 144 | 2.6 | 7.0 | 0.00 | 0.00 | 0.00 | 85 | 1009.8 |
| 20260506171523 | 81 | 167 | 6.1 | 9.6 | 0.00 | 0.00 | 0.00 | 86 | 1009.8 |
| 20260506170109 | 80 | 150 | 1.7 | 7.8 | 0.00 | 0.00 | 0.00 | 88 | 1010.0 |
| 20260506164552 | 80 | 137 | 3.5 | 6.1 | 0.00 | 0.00 | 0.00 | 88 | 1010.0 |
| 20260506163023 | 80 | 190 | 1.7 | 7.0 | 0.00 | 0.00 | 0.00 | 89 | 1009.9 |
| 20260506161606 | 79 | 121 | 1.7 | 8.7 | 0.00 | 0.00 | 0.00 | 89 | 1009.7 |
| 20260506160040 | 79 | 153 | 1.7 | 7.0 | 0.00 | 0.00 | 0.00 | 89 | 1009.7 |
| 20260506154514 | 79 | 131 | 2.6 | 5.2 | 0.00 | 0.00 | 0.00 | 88 | 1009.6 |
| 20260506153045 | 79 | 122 | 1.7 | 4.3 | 0.00 | 0.00 | 0.00 | 88 | 1009.5 |
| 20260506151518 | 79 | 167 | 0.9 | 4.3 | 0.00 | 0.00 | 0.00 | 89 | 1009.3 |
| 20260506150054 | 79 | 139 | 3.5 | 8.7 | 0.00 | 0.00 | 0.00 | 89 | 1009.1 |
| 20260506144521 | 79 | 152 | 4.3 | 7.8 | 0.00 | 0.00 | 0.00 | 90 | 1008.9 |
| 20260506143104 | 79 | 184 | 3.5 | 8.7 | 0.00 | 0.00 | 0.00 | 91 | 1008.7 |
| 20260506141532 | 78 | 178 | 5.2 | 9.6 | 0.00 | 0.00 | 0.00 | 91 | 1008.7 |
| 20260506140005 | 78 | 169 | 4.3 | 10.4 | 0.00 | 0.00 | 0.00 | 92 | 1008.8 |
| 20260506134543 | 78 | 129 | 6.1 | 10.4 | 0.00 | 0.00 | 0.00 | 92 | 1008.9 |
| 20260506133021 | 77 | 125 | 2.6 | 8.7 | 0.00 | 0.00 | 0.00 | 93 | 1009.0 |
| 20260506131606 | 77 | 109 | 2.6 | 7.0 | 0.00 | 0.00 | 0.00 | 93 | 1009.0 |
| 20260506130038 | 77 | 132 | 2.6 | 6.1 | 0.00 | 0.00 | 0.00 | 93 | 1009.1 |
| 20260506124608 | 77 | 155 | 1.7 | 3.5 | 0.00 | 0.00 | 0.00 | 94 | 1009.0 |
| 20260506123039 | 77 | 121 | 1.7 | 7.0 | 0.00 | 0.00 | 0.00 | 94 | 1008.9 |
| 20260506121505 | 76 | 132 | 1.7 | 6.1 | 0.00 | 0.00 | 0.00 | 93 | 1008.8 |
| 20260506120050 | 76 | 125 | 2.6 | 7.0 | 0.00 | 0.00 | 0.00 | 94 | 1008.5 |
| 20260506114522 | 76 | 158 | 2.6 | 5.2 | 0.00 | 0.00 | 0.00 | 93 | 1008.3 |
| 20260506113104 | 76 | 116 | 2.6 | 7.0 | 0.00 | 0.00 | 0.00 | 93 | 1008.1 |
| 20260506111539 | 76 | 169 | 3.5 | 7.0 | 0.00 | 0.00 | 0.00 | 93 | 1007.9 |
| 20260506110011 | 76 | 151 | 5.2 | 10.4 | 0.00 | 0.00 | 0.00 | 93 | 1007.7 |
| 20260506104604 | 76 | 147 | 3.5 | 7.8 | 0.00 | 0.00 | 0.00 | 93 | 1007.7 |
| 20260506103040 | 76 | 146 | 5.2 | 11.3 | 0.00 | 0.00 | 0.00 | 93 | 1007.6 |
| 20260506101505 | 76 | 169 | 5.2 | 11.3 | 0.00 | 0.00 | 0.00 | 93 | 1007.5 |
| 20260506100045 | 76 | 152 | 6.1 | 11.3 | 0.00 | 0.00 | 0.00 | 94 | 1007.6 |
| 20260506094510 | 76 | 139 | 5.2 | 12.2 | 0.00 | 0.00 | 0.00 | 93 | 1007.5 |
| 20260506093054 | 76 | 125 | 3.5 | 10.4 | 0.00 | 0.00 | 0.00 | 93 | 1007.4 |
| 20260506091528 | 76 | 148 | 5.2 | 8.7 | 0.00 | 0.00 | 0.00 | 93 | 1007.6 |
| 20260506090112 | 76 | 139 | 1.7 | 5.2 | 0.00 | 0.00 | 0.00 | 92 | 1007.7 |
| 20260506084541 | 76 | 186 | 2.6 | 6.1 | 0.00 | 0.00 | 0.00 | 92 | 1007.8 |
| 20260506083008 | 77 | 174 | 2.6 | 9.6 | 0.00 | 0.00 | 0.00 | 92 | 1008.0 |
| 20260506081546 | 77 | 143 | 4.3 | 11.3 | 0.00 | 0.00 | 0.00 | 91 | 1008.0 |